Regional Weather Roundup
Issued by NWS

Home | Current Version | Previous Version | Text Only | Print | Product List | Glossary Off
Versions: 1 2 3 4 5 6 7 8 9 10 11 12 13 14 15 16 17 18 19 20 21 22 23 24 25 26 27 28 29 30 31 32 33 34 35 36 37 38 39 40 41 42 43 44 45 46 47 48 49 50

000
ASUS43 KLOT 040810
RWRIL

ILLINOIS REGIONAL WEATHER ROUNDUP
NATIONAL WEATHER SERVICE CHICAGO/ROMEOVILLE IL
200 AM CST WED MAR 04 2015

NOTE: "FAIR" INDICATES FEW OR NO CLOUDS BELOW 12,000 FEET WITH NO
SIGNIFICANT WEATHER AND/OR OBSTRUCTIONS TO VISIBILITY.

* THESE STATIONS ARE NOT UNDER NWS QUALITY CONTROL. THEY ALSO MAY NOT
  REPORT WEATHER SUCH AS PRECIPITATION OR FOG.

ILZ001-002-007-009-015-016-024-040900-
NORTHWEST ILLINOIS

CITY           SKY/WX    TMP DP  RH WIND       PRES   REMARKS
MOLINE         PTCLDY    16   7  67 NW16      30.02R WCI   1
STERLING*      CLEAR     18  10  73 NW16      29.97R WCI   3
SAVANNA*       CLEAR     16   8  70 NW13G18   30.00R WCI   2
$$

ILZ003-004-008-010-011-017-018-040900-
NORTH CENTRAL ILLINOIS

CITY           SKY/WX    TMP DP  RH WIND       PRES   REMARKS
ROCKFORD       PTCLDY    19  11  70 NW16      29.93R WCI   4
FREEPORT*      CLEAR     15   8  76 NW17      29.95R WCI  -2
ROCHELLE*      PTCLDY    21  15  78 NW18G24   29.93R WCI   6
DE KALB*       PTCLDY    22  17  80 W16       29.90R WCI   8
PERU*          MOCLDY    22  17  78 W14       29.96R WCI  10
$$

ILZ005-006-012>014-019>023-040900-
NORTHEAST ILLINOIS

CITY           SKY/WX    TMP DP  RH WIND       PRES   REMARKS
CHICAGO-OHARE  CLOUDY    29  21  72 W10       29.87S WCI  20
CHICAGO-MIDWAY CLOUDY    32  23  69 W9        29.89R WCI  24
AURORA         MOCLDY    28  21  75 W15       29.91R WCI  16
LANSING*       CLOUDY    32  26  78 NW5       29.89S WCI  27
JOLIET*        CLOUDY    30  24  80 NW7       29.91S WCI  23
WAUKEGAN       MOCLDY    28  22  78 W5        29.86R WCI  23
DUPAGE AIRPORT MOCLDY    28  22  78 W13       29.88R WCI  17
KANKAKEE*      CLOUDY    31  28  86 W7        29.92R WCI  24
WHEELING       MOCLDY    29  22  75 W8        29.89R WCI  21
MORRIS*        CLOUDY    28  25  88 NW14      29.92R WCI  17
ROMEOVILLE*    CLOUDY    30  25  83 NW12      29.89F WCI  20
NORTHERLY ISL    N/A     32  23  70 W9          N/A  WCI  24
$$

LMZ740>746-040900-
SOUTHERN LAKE MICHIGAN

STATION/POSITION SKY/WX   TEMP    WIND        PRES    VSBY  WAVE
                          AIR SEA DIR/SP/G                  HT/PER
                          (F)     (DEG/KT/KT) (MB)    (MI)  (FT/S)
WAUKEGAN HARBOR            30                   N/A
HARRISON CRIB              31     290/ 13/ 16   N/A
BURNHAM HARBOR             32     280/  7/ 11   N/A
CALUMET HARBOR             32     280/  6/  8 1011.0F
MICHIGAN CITY              31     250/  9/ 11   N/A
$$

ILZ025>027-034>036-040-047-049-050-058-095>099-040900-
WEST-CENTRAL ILLINOIS

CITY           SKY/WX    TMP DP  RH WIND       PRES   REMARKS
QUINCY         MOCLDY    24  15  68 N17       30.03R WCI  11
GALESBURG*     PTCLDY    18  14  86 NW13      30.00R WCI   4
MACOMB*        PTCLDY    20  15  81 NW15G21   30.03R WCI   6
JACKSONVILLE*  CLOUDY    31  24  75 NW14      29.99R WCI  21
PITTSFIELD*    CLOUDY    29  23  77 NW9       30.03R WCI  21
$$

ILZ028>032-037-038-041>044-048-051>054-059>061-040900-
CENTRAL ILLINOIS

CITY           SKY/WX    TMP DP  RH WIND       PRES   REMARKS
PONTIAC        CLOUDY    28  25  86 NW12      29.94R WCI  18
BLOOMINGTON    CLOUDY    28  25  89 NW13      29.95R WCI  17
DECATUR        CLOUDY    33  26  75 NW13      29.94R WCI  24
PEORIA         MOCLDY    25  17  72 N10       29.97F WCI  15
LACON*         MOCLDY    21  13  70 NW14G20   29.97R WCI   8
LINCOLN*       CLOUDY    31  25  80 NW9       29.97S WCI  23
SPRINGFIELD    CLOUDY    31  25  78 NW15      29.98R WCI  20
TAYLORVILLE    CLOUDY    32  28  86 N8        29.95S WCI  25
$$

ILZ033-039-045-046-055>057-062-063-040900-
EAST-CENTRAL ILLINOIS

CITY           SKY/WX    TMP DP  RH WIND       PRES   REMARKS
CHAMPAIGN      CLOUDY    32  28  85 NW7       29.93R WCI  26
DANVILLE*      CLOUDY    32  28  84 NW7       29.90R WCI  25
RANTOUL*       CLOUDY    33  29  86 NW6       29.93R WCI  27
MATTOON        CLOUDY    33  29  85 NW10      29.93R WCI  25
PARIS*         CLOUDY    33  31  92 NW6       29.93S WCI  28
$$

ILZ079-100>102-040900-
SOUTHWEST ILLINOIS

CITY           SKY/WX    TMP DP  RH WIND       PRES   REMARKS
ALTON          DRIZZLE   34  32  92 NW5       29.98S WCI  30
BELLEVILLE     LGT RAIN  34  34 100 NW6       29.96R WCI  29
CAHOKIA*       LGT RAIN  35  32  88 N8        29.98R WCI  29
SPARTA*        LGT RAIN  33  32  96 N8        29.97R WCI  26
$$

ILZ064>066-069>071-074>076-080>082-084>086-088>090-092>094-040900-
SOUTH-CENTRAL ILLINOIS

CITY           SKY/WX    TMP DP  RH WIND       PRES   REMARKS
CARBONDALE     LGT RAIN  40  38  93 N3        29.93F FOG
CAIRO*         RAIN     N/A N/A N/A NE6       29.92R
EFFINGHAM*     CLOUDY    34  31  90 CALM      29.94F
MARION         RAIN      41  41 100 NE5       29.93S
MT. VERNON     CLOUDY    36  34  93 CALM      29.95R
CENTRALIA*     RAIN      34  32  92 N8        29.95R WCI  27
SALEM*         RAIN      36  34  93 N8        29.94R WCI  30
METROPOLIS*    RAIN      44  44 100 NE3       29.91S
$$

ILZ067-068-072-073-078-083-087-091-040900-
SOUTHEAST ILLINOIS

CITY           SKY/WX    TMP DP  RH WIND       PRES   REMARKS
LAWRENCEVILLE  LGT RAIN  34  33  96 N6        29.92F WCI  29
FLORA*         LGT RAIN  34  34 100 N9        29.96R WCI  26
FAIRFIELD*     DRIZZLE   36  36  99 N10       29.93R WCI  28
HARRISBURG*    LGT RAIN  41  41 100 N5        29.94S
ROBINSON*      LGT RAIN  34  33  97 NW6       29.92F WCI  29
CARMI*         RAIN      40  40 100 N5        29.93R
$$

ABBREVIATIONS USED IN REMARKS
   TC - TEMPERATURE IN CELSIUS
  WCI - WIND CHILL INDEX
   HX - HEAT INDEX
  VSB - VISIBILITY
$$



USA.gov is the U.S. government's official web portal to all federal, state and local government web resources and services.